EW2353 Weather Reports


Display with metric or nautical units.
time (UTC)temp
F
wind
direction
speed
MPH
gust
MPH
rain 1hr
in
rain 24hr
in
rain mn
in
humidity
%
barometer
mb
20260901175828 91 256 3.0 11.0 0.00 0.00 0.00 68 1018.6
20260901175321 91 219 3.0 11.0 0.00 0.00 0.00 66 1018.6
20260901174814 90 214 2.0 11.0 0.00 0.00 0.00 67 1018.7
20260901174326 90 278 3.0 10.0 0.00 0.00 0.00 65 1018.7
20260901173839 90 214 5.0 9.0 0.00 0.00 0.00 68 1018.7
20260901173310 90 233 4.0 9.0 0.00 0.00 0.00 67 1018.7
20260901172827 90 209 2.0 9.0 0.00 0.00 0.00 70 1018.8
20260901172320 90 210 5.0 9.0 0.00 0.00 0.00 66 1018.8
20260901171833 90 228 4.0 8.0 0.00 0.00 0.00 68 1018.8
20260901171324 90 252 3.0 7.0 0.00 0.00 0.00 68 1018.9
20260901170838 90 229 1.0 7.0 0.00 0.00 0.00 70 1018.8
20260901170330 90 224 4.0 7.0 0.00 0.00 0.00 70 1019.0
20260901165822 89 257 4.0 8.0 0.00 0.00 0.00 69 1019.0
20260901165315 90 269 3.0 8.0 0.00 0.00 0.00 70 1019.1
20260901164828 89 252 4.0 8.0 0.00 0.00 0.00 67 1019.1
20260901164325 90 243 3.0 7.0 0.00 0.00 0.00 73 1019.2
20260901163818 89 252 1.0 8.0 0.00 0.00 0.00 71 1019.2
20260901163310 88 288 4.0 10.0 0.00 0.00 0.00 71 1019.2
20260901162823 88 260 5.0 12.0 0.00 0.00 0.00 71 1019.3
20260901162336 88 260 7.0 12.0 0.00 0.00 0.00 71 1019.3
20260901161828 88 217 5.0 10.0 0.00 0.00 0.00 72 1019.3
20260901161320 88 253 6.0 10.0 0.00 0.00 0.00 71 1019.2
20260901160813 87 256 4.0 10.0 0.00 0.00 0.00 74 1019.3
20260901160346 87 227 5.0 10.0 0.00 0.00 0.00 72 1019.2
20260901155837 87 244 6.0 10.0 0.00 0.00 0.00 73 1019.3
20260901155313 87 224 5.0 12.0 0.00 0.00 0.00 73 1019.4
20260901154825 87 263 4.0 13.0 0.00 0.00 0.00 74 1019.4
20260901154338 87 260 6.0 13.0 0.00 0.00 0.00 72 1019.3
20260901153810 87 219 1.0 7.0 0.00 0.00 0.00 78 1019.5
20260901153322 86 170 1.0 10.0 0.00 0.00 0.00 77 1019.5
20260901152815 86 257 2.0 8.0 0.00 0.00 0.00 76 1019.6
20260901152328 86 188 3.0 9.0 0.00 0.00 0.00 77 1019.5
20260901151821 85 258 6.0 9.0 0.00 0.00 0.00 76 1019.5
20260901151318 85 236 3.0 8.0 0.00 0.00 0.00 77 1019.5
20260901150811 85 259 5.0 8.0 0.00 0.00 0.00 77 1019.5
20260901150343 85 238 4.0 9.0 0.00 0.00 0.00 77 1019.5
20260901145814 85 263 4.0 9.0 0.00 0.00 0.00 77 1019.5
20260901145326 85 264 4.0 8.0 0.00 0.00 0.00 76 1019.5
20260901144819 84 256 4.0 7.0 0.00 0.00 0.00 78 1019.4
20260901144312 84 259 5.0 11.0 0.00 0.00 0.00 79 1019.4
20260901143825 84 231 5.0 11.0 0.00 0.00 0.00 80 1019.5
20260901143318 83 266 4.0 8.0 0.00 0.00 0.00 82 1019.4
20260901142815 83 236 3.0 8.0 0.00 0.00 0.00 83 1019.5
20260901142328 83 239 3.0 8.0 0.00 0.00 0.00 83 1019.5
20260901141820 82 239 5.0 8.0 0.00 0.00 0.00 81 1019.6
20260901141313 82 203 4.0 9.0 0.00 0.00 0.00 82 1019.6
20260901140826 81 239 5.0 9.0 0.00 0.00 0.00 82 1019.6
20260901140319 81 252 5.0 10.0 0.00 0.00 0.00 84 1019.6
20260901135812 81 236 3.0 7.0 0.00 0.00 0.00 84 1019.7
20260901135324 81 249 4.0 8.0 0.00 0.00 0.00 85 1019.6
20260901134837 80 257 4.0 8.0 0.00 0.00 0.00 85 1019.7
20260901134349 80 236 4.0 7.0 0.00 0.00 0.00 85 1019.7
20260901133821 80 236 3.0 7.0 0.00 0.00 0.00 87 1019.8
20260901133314 79 266 3.0 7.0 0.00 0.00 0.00 87 1019.6
20260901132827 79 283 3.0 6.0 0.00 0.00 0.00 88 1019.6
20260901132320 79 270 3.0 6.0 0.00 0.00 0.00 88 1019.7
20260901131833 78 256 1.0 4.0 0.00 0.00 0.00 90 1019.7
20260901131325 78 229 0.0 3.0 0.00 0.00 0.00 91 1019.8
20260901130817 77 203 0.0 2.0 0.00 0.00 0.00 93 1019.7
20260901130314 77 213 0.0 2.0 0.00 0.00 0.00 94 1019.7
20260901125848 76 210 0.0 1.0 0.00 0.00 0.00 95 1019.7
20260901125319 75 215 0.0 2.0 0.00 0.00 0.00 95 1019.7
20260901124812 75 202 0.0 3.0 0.00 0.00 0.00 96 1019.7
20260901124324 74 210 1.0 3.0 0.00 0.00 0.00 96 1019.7
20260901123837 73 207 1.0 3.0 0.00 0.00 0.00 96 1019.7
20260901123329 73 188 1.0 3.0 0.00 0.00 0.00 97 1019.8
20260901122821 72 219 1.0 2.0 0.00 0.00 0.00 97 1019.7
20260901122314 72 195 0.0 1.0 0.00 0.00 0.00 97 1019.7
20260901121811 72 261 0.0 1.0 0.00 0.00 0.00 97 1019.6
20260901121323 71 261 0.0 1.0 0.00 0.00 0.00 97 1019.6
20260901120816 71 261 0.0 1.0 0.00 0.00 0.00 97 1019.6
20260901120349 70 261 0.0 1.0 0.00 0.00 0.00 97 1019.5
20260901115821 70 261 0.0 1.0 0.00 0.00 0.00 97 1019.4
20260901115313 69 261 0.0 0.0 0.00 0.00 0.00 97 1019.4
20260901114826 68 261 0.0 0.0 0.00 0.00 0.00 97 1019.4
20260901114319 68 261 0.0 0.0 0.00 0.00 0.00 97 1019.3
20260901113811 67 261 0.0 0.0 0.00 0.00 0.00 97 1019.2
20260901113327 67 261 0.0 0.0 0.00 0.00 0.00 97 1019.2
20260901112821 67 261 0.0 0.0 0.00 0.00 0.00 97 1019.1
20260901112314 67 261 0.0 0.0 0.00 0.00 0.00 97 1019.0
20260901111827 67 261 0.0 0.0 0.00 0.00 0.00 97 1018.9
20260901111319 67 261 0.0 0.0 0.00 0.00 0.00 97 1018.9
20260901110811 67 261 0.0 0.0 0.00 0.00 0.00 97 1018.9
20260901110345 67 261 0.0 0.0 0.00 0.00 0.00 97 1018.8
20260901105837 67 261 0.0 0.0 0.00 0.00 0.00 97 1018.8
20260901105328 67 261 0.0 0.0 0.00 0.00 0.00 97 1018.7
20260901104825 67 261 0.0 0.0 0.00 0.00 0.00 97 1018.7
20260901104338 67 261 0.0 0.0 0.00 0.00 0.00 97 1018.7
20260901103849 67 261 0.0 0.0 0.00 0.00 0.00 97 1018.7
20260901103341 67 261 0.0 0.0 0.00 0.00 0.00 97 1018.7
20260901102813 67 261 0.0 0.0 0.00 0.00 0.00 97 1018.6
20260901102346 67 261 0.0 0.0 0.00 0.00 0.00 97 1018.6
20260901101817 67 261 0.0 0.0 0.00 0.00 0.00 97 1018.5
20260901101310 67 261 0.0 0.0 0.00 0.00 0.00 97 1018.5
20260901100823 68 261 0.0 0.0 0.00 0.00 0.00 97 1018.5
20260901100315 67 261 0.0 0.0 0.00 0.00 0.00 97 1018.5
20260901095812 67 261 0.0 0.0 0.00 0.00 0.00 97 1018.5
20260901095325 67 261 0.0 0.0 0.00 0.00 0.00 97 1018.4
20260901094838 67 261 0.0 0.0 0.00 0.00 0.00 97 1018.4
20260901094309 68 261 0.0 0.0 0.00 0.00 0.00 97 1018.3
20260901093323 68 261 0.0 0.0 0.00 0.00 0.00 97 1018.4
20260901092816 68 261 0.0 0.0 0.00 0.00 0.00 97 1018.3
20260901092329 68 261 0.0 0.0 0.00 0.00 0.00 97 1018.3
20260901091821 68 261 0.0 0.0 0.00 0.00 0.00 97 1018.2
20260901091315 68 261 0.0 0.0 0.00 0.00 0.00 97 1018.2
20260901090847 68 261 0.0 0.0 0.00 0.00 0.00 97 1018.2
20260901090323 68 261 0.0 0.0 0.00 0.00 0.00 97 1018.1
20260901085817 68 261 0.0 0.0 0.00 0.00 0.00 97 1018.1
20260901085329 68 261 0.0 0.0 0.00 0.00 0.00 97 1018.1
20260901084822 68 261 0.0 0.0 0.00 0.00 0.00 97 1018.1
20260901084315 68 261 0.0 0.0 0.00 0.00 0.00 97 1018.0
20260901083827 68 261 0.0 0.0 0.00 0.00 0.00 97 1017.9
20260901083341 68 261 0.0 0.0 0.00 0.00 0.00 97 1017.9
20260901082813 69 261 0.0 0.0 0.00 0.00 0.00 97 1017.9
20260901082326 69 261 0.0 0.0 0.00 0.00 0.00 97 1017.9
20260901081822 69 261 0.0 0.0 0.00 0.00 0.00 96 1017.9
20260901081335 69 261 0.0 0.0 0.00 0.00 0.00 96 1017.9
20260901080827 69 261 0.0 0.0 0.00 0.00 0.00 96 1017.8
20260901080320 70 261 0.0 0.0 0.00 0.00 0.00 97 1017.9
20260901075833 70 261 0.0 0.0 0.00 0.00 0.00 97 1017.9
20260901075343 70 261 0.0 0.0 0.00 0.00 0.00 96 1017.9
20260901074815 70 261 0.0 0.0 0.00 0.00 0.00 96 1017.9
20260901074328 70 261 0.0 0.0 0.00 0.00 0.00 96 1017.9
20260901073821 71 261 0.0 0.0 0.00 0.00 0.00 96 1017.8
20260901073318 71 261 0.0 0.0 0.00 0.00 0.00 97 1017.8
20260901072811 71 261 0.0 0.0 0.00 0.00 0.00 97 1017.7
20260901072322 71 261 0.0 0.0 0.00 0.00 0.00 97 1017.6
20260901071815 71 261 0.0 0.0 0.00 0.00 0.00 96 1017.6
20260901071328 71 261 0.0 0.0 0.00 0.00 0.00 97 1017.7
20260901070821 72 261 0.0 0.0 0.00 0.00 0.00 97 1017.7
20260901070331 72 261 0.0 0.0 0.00 0.00 0.00 97 1017.7
20260901065823 72 261 0.0 0.0 0.00 0.00 0.00 97 1017.7
20260901065315 72 261 0.0 1.0 0.00 0.00 0.00 97 1017.7
20260901064811 72 261 0.0 1.0 0.00 0.00 0.00 97 1017.7
20260901064324 72 261 0.0 0.0 0.00 0.00 0.00 97 1017.7
20260901063817 72 261 0.0 1.0 0.00 0.00 0.00 97 1017.7
20260901063310 72 261 0.0 1.0 0.00 0.00 0.00 97 1017.6
20260901062823 71 261 0.0 1.0 0.00 0.00 0.00 97 1017.7
20260901062316 71 261 0.0 1.0 0.00 0.00 0.00 97 1017.5
20260901061828 71 261 0.0 1.0 0.00 0.00 0.00 97 1017.5
20260901061321 71 261 0.0 1.0 0.00 0.00 0.00 97 1017.5
20260901060837 71 261 0.0 0.0 0.00 0.00 0.00 97 1017.5
20260901060329 71 261 0.0 0.0 0.00 0.00 0.00 97 1017.4
20260901055822 71 261 0.0 1.0 0.00 0.00 0.00 97 1017.5
20260901055315 71 261 0.0 0.0 0.00 0.00 0.00 97 1017.4
20260901054828 71 261 0.0 0.0 0.00 0.00 0.00 97 1017.5
20260901054341 71 261 0.0 0.0 0.00 0.00 0.00 97 1017.6
20260901053812 71 261 0.0 0.0 0.00 0.00 0.00 97 1017.7
20260901053325 71 261 0.0 0.0 0.00 0.00 0.00 97 1017.8
20260901052818 70 261 0.0 0.0 0.00 0.00 0.00 97 1017.7
20260901052315 70 261 0.0 0.0 0.00 0.00 0.00 97 1017.8
20260901051828 70 261 0.0 0.0 0.00 0.00 0.00 97 1017.9
20260901051321 70 261 0.0 0.0 0.00 0.00 0.00 97 1017.8
20260901050813 70 261 0.0 0.0 0.00 0.00 0.00 97 1018.0
20260901050346 70 261 0.0 0.0 0.00 0.00 0.00 97 1018.0
20260901045817 70 261 0.0 0.0 0.00 0.00 0.00 97 1018.1
20260901045350 70 261 0.0 0.0 0.00 0.00 0.00 97 1018.2
20260901044323 71 261 0.0 0.0 0.00 0.00 0.00 97 1018.3
20260901043836 71 261 0.0 0.0 0.00 0.00 0.00 97 1018.3
20260901043348 71 261 0.0 0.0 0.00 0.00 0.00 97 1018.3
20260901042819 71 261 0.0 0.0 0.00 0.00 0.00 97 1018.4
20260901042337 71 261 0.0 0.0 0.00 0.00 0.00 97 1018.4
20260901041828 71 261 0.0 0.0 0.00 0.00 0.00 97 1018.5
20260901041321 71 261 0.0 0.0 0.00 0.00 0.00 97 1018.5
20260901040834 71 261 0.0 0.0 0.00 0.00 0.00 97 1018.6
20260901040325 71 261 0.0 0.0 0.00 0.00 0.00 97 1018.6
20260901035818 71 261 0.0 0.0 0.00 0.00 0.00 96 1018.6
20260901035332 71 261 0.0 0.0 0.00 0.00 0.00 96 1018.5
20260901034823 71 261 0.0 0.0 0.00 0.00 0.00 96 1018.5
20260901034336 71 261 0.0 0.0 0.00 0.00 0.00 96 1018.6
20260901033828 71 261 0.0 0.0 0.00 0.00 0.00 96 1018.6
20260901033325 71 261 0.0 0.0 0.00 0.00 0.00 96 1018.6
20260901032817 71 261 0.0 0.0 0.00 0.00 0.00 96 1018.6
20260901032331 72 261 0.0 0.0 0.00 0.00 0.00 96 1018.6
20260901031822 72 261 0.0 0.0 0.00 0.00 0.00 96 1018.6
20260901031315 72 261 0.0 0.0 0.00 0.00 0.00 96 1018.7
20260901030828 72 261 0.0 0.0 0.00 0.00 0.00 96 1018.6
20260901030321 72 261 0.0 0.0 0.00 0.00 0.00 96 1018.6
20260901025813 72 261 0.0 0.0 0.00 0.00 0.00 96 1018.6
20260901025310 72 261 0.0 0.0 0.00 0.00 0.00 95 1018.7
20260901024823 72 261 0.0 0.0 0.00 0.00 0.00 95 1018.7
20260901024336 73 261 0.0 0.0 0.00 0.00 0.00 95 1018.7
20260901023825 73 261 0.0 0.0 0.00 0.00 0.00 95 1018.7
20260901023338 73 261 0.0 0.0 0.00 0.00 0.00 95 1018.8
20260901022810 73 261 0.0 0.0 0.00 0.00 0.00 95 1018.8
20260901022323 73 261 0.0 0.0 0.00 0.00 0.00 95 1018.8
20260901021816 73 261 0.0 0.0 0.00 0.00 0.00 95 1018.8
20260901021349 73 261 0.0 0.0 0.00 0.00 0.00 94 1018.7
20260901020820 73 261 0.0 0.0 0.00 0.00 0.00 94 1018.7
20260901020317 74 261 0.0 0.0 0.00 0.00 0.00 94 1018.6
20260901015829 74 261 0.0 0.0 0.00 0.00 0.00 94 1018.6
20260901015322 74 261 0.0 0.0 0.00 0.00 0.00 93 1018.5
20260901014815 74 261 0.0 0.0 0.00 0.00 0.00 94 1018.5
20260901014327 74 261 0.0 0.0 0.00 0.00 0.00 94 1018.5
20260901013820 74 261 0.0 0.0 0.00 0.00 0.00 94 1018.5
20260901013312 74 261 0.0 0.0 0.00 0.00 0.00 93 1018.5
20260901012824 75 261 0.0 0.0 0.00 0.00 0.00 93 1018.4
20260901012321 75 261 0.0 0.0 0.00 0.00 0.00 93 1018.3
20260901011814 75 261 0.0 0.0 0.00 0.00 0.00 92 1018.3
20260901011327 76 261 0.0 0.0 0.00 0.00 0.00 92 1018.3
20260901010820 76 261 0.0 0.0 0.00 0.00 0.00 91 1018.3
20260901010312 76 261 0.0 0.0 0.00 0.00 0.00 90 1018.2
20260901005825 76 261 0.0 0.0 0.00 0.00 0.00 89 1018.2
20260901005315 77 261 0.0 0.0 0.00 0.00 0.00 89 1018.1
20260901004828 77 261 0.0 0.0 0.00 0.00 0.00 89 1018.1
20260901004325 77 261 0.0 0.0 0.00 0.00 0.00 88 1017.9
20260901003818 78 261 0.0 0.0 0.00 0.00 0.00 88 1017.9
20260901003311 78 261 0.0 0.0 0.00 0.00 0.00 87 1017.9
20260901002843 79 261 0.0 0.0 0.00 0.00 0.00 86 1017.7
20260901002316 79 261 0.0 0.0 0.00 0.00 0.00 85 1017.6
20260901001828 80 261 0.0 0.0 0.00 0.00 0.00 84 1017.6
20260901001321 81 261 0.0 0.0 0.00 0.00 0.00 83 1017.5
20260901000814 81 261 0.0 0.0 0.00 0.00 0.00 82 1017.5
20260901000314 82 261 0.0 1.0 0.00 0.00 0.00 81 1017.5
20260831235823 82 261 0.0 1.0 0.00 0.00 0.00 80 1017.4
20260831235315 82 261 0.0 1.0 0.00 0.00 0.00 80 1017.4
20260831234828 83 261 0.0 1.0 0.00 0.00 0.00 80 1017.3
20260831234321 83 261 0.0 1.0 0.00 0.00 0.00 79 1017.4
20260831233813 83 261 0.0 2.0 0.00 0.00 0.00 78 1017.4
20260831233325 84 251 0.0 3.0 0.00 0.00 0.00 77 1017.4
20260831232837 84 249 1.0 3.0 0.00 0.00 0.00 77 1017.3
20260831232329 85 248 1.0 2.0 0.00 0.00 0.00 75 1017.3
20260831231842 85 259 0.0 4.0 0.00 0.00 0.00 75 1017.3
20260831231338 86 243 2.0 4.0 0.00 0.00 0.00 73 1017.2
20260831230830 86 227 1.0 4.0 0.00 0.00 0.00 73 1017.2
20260831230322 86 211 0.0 4.0 0.00 0.00 0.00 72 1017.2
20260831225815 87 222 2.0 5.0 0.00 0.00 0.00 71 1017.2
20260831225328 88 283 2.0 5.0 0.00 0.00 0.00 70 1017.2
20260831224840 88 241 2.0 7.0 0.00 0.00 0.00 70 1017.2
20260831224312 88 222 1.0 8.0 0.00 0.00 0.00 69 1017.2
20260831223825 88 231 3.0 8.0 0.00 0.00 0.00 68 1017.2
20260831223318 89 225 3.0 6.0 0.00 0.00 0.00 67 1017.3
20260831222835 89 240 1.0 9.0 0.00 0.00 0.00 69 1017.3
20260831222327 89 163 2.0 7.0 0.00 0.00 0.00 68 1017.4
20260831221840 89 225 2.0 6.0 0.00 0.00 0.00 68 1017.4
20260831221312 90 219 2.0 7.0 0.00 0.00 0.00 67 1017.5
20260831220824 89 232 2.0 8.0 0.00 0.00 0.00 67 1017.6
20260831220337 90 252 2.0 8.0 0.00 0.00 0.00 67 1017.7
20260831215829 90 226 3.0 8.0 0.00 0.00 0.00 65 1017.7
20260831215322 90 205 2.0 5.0 0.00 0.00 0.00 67 1017.9
20260831214815 90 198 1.0 6.0 0.00 0.00 0.00 66 1017.9
20260831214312 90 242 2.0 5.0 0.00 0.00 0.00 67 1017.9
20260831213843 90 233 1.0 9.0 0.00 0.00 0.00 68 1018.0
20260831213315 90 242 4.0 9.0 0.00 0.00 0.00 65 1018.0
20260831212828 90 262 4.0 9.0 0.00 0.00 0.00 63 1018.0
20260831212321 90 246 3.0 9.0 0.00 0.00 0.00 64 1018.1
20260831211814 91 214 2.0 5.0 0.00 0.00 0.00 66 1018.1
20260831211347 91 234 1.0 5.0 0.00 0.00 0.00 65 1018.1
20260831210839 90 252 1.0 6.0 0.00 0.00 0.00 64 1018.2
20260831210311 90 256 3.0 6.0 0.00 0.00 0.00 67 1018.3
20260831205843 90 236 2.0 6.0 0.00 0.00 0.00 66 1018.3
20260831205335 90 250 3.0 7.0 0.00 0.00 0.00 63 1018.4
20260831204810 91 243 3.0 6.0 0.00 0.00 0.00 63 1018.4
20260831204323 91 221 2.0 7.0 0.00 0.00 0.00 64 1018.4
20260831203816 91 250 3.0 7.0 0.00 0.00 0.00 63 1018.5
20260831203329 90 226 2.0 10.0 0.00 0.00 0.00 63 1018.4
20260831202842 90 262 4.0 10.0 0.00 0.00 0.00 62 1018.5
20260831202313 91 282 3.0 6.0 0.00 0.00 0.00 64 1018.6
20260831201826 91 221 3.0 7.0 0.00 0.00 0.00 64 1018.6
20260831201319 91 247 2.0 7.0 0.00 0.00 0.00 65 1018.7
20260831200812 91 279 2.0 6.0 0.00 0.00 0.00 63 1018.8
20260831200329 91 259 2.0 8.0 0.00 0.00 0.00 63 1018.8
20260831195822 91 284 3.0 8.0 0.00 0.00 0.00 60 1018.9
20260831195314 91 255 2.0 8.0 0.00 0.00 0.00 61 1018.9
20260831194827 91 282 4.0 8.0 0.00 0.00 0.00 62 1019.0
20260831194320 91 274 2.0 7.0 0.00 0.00 0.00 64 1019.2
20260831193833 91 234 2.0 7.0 0.00 0.00 0.00 63 1019.3
20260831193325 91 260 3.0 7.0 0.00 0.00 0.00 60 1019.3
20260831192818 91 289 2.0 7.0 0.00 0.00 0.00 64 1019.3
20260831192314 90 263 2.0 7.0 0.00 0.00 0.00 63 1019.4
20260831191828 90 281 4.0 7.0 0.00 0.00 0.00 62 1019.5
20260831191320 91 256 5.0 7.0 0.00 0.00 0.00 61 1019.4
20260831190813 91 265 2.0 8.0 0.00 0.00 0.00 61 1019.5
20260831190325 90 276 2.0 10.0 0.00 0.00 0.00 63 1019.5
20260831185839 90 241 6.0 12.0 0.00 0.00 0.00 66 1019.6
20260831185310 91 264 6.0 12.0 0.00 0.00 0.00 65 1019.5
20260831184823 90 223 2.0 8.0 0.00 0.00 0.00 65 1019.6
20260831184315 90 277 4.0 11.0 0.00 0.00 0.00 65 1019.6
20260831183812 90 262 6.0 9.0 0.00 0.00 0.00 66 1019.7
20260831183326 90 256 5.0 9.0 0.00 0.00 0.00 65 1019.7
20260831182818 89 282 3.0 11.0 0.00 0.00 0.00 67 1019.7
20260831182311 89 233 6.0 11.0 0.00 0.00 0.00 65 1019.8
20260831181824 89 240 5.0 10.0 0.00 0.00 0.00 66 1019.9
20260831181317 89 258 7.0 10.0 0.00 0.00 0.00 68 1019.9
20260831180809 89 256 5.0 10.0 0.00 0.00 0.00 67 1019.9
20260831180322 89 261 6.0 10.0 0.00 0.00 0.00 66 1019.9